Vorticity
7 9 6 4 -1 -8 1 5 2 6 5 7 7 3 4 4 5 8 8 4 5 9 8 6 4 10 17 9 7 11 5 7 10 7 13 19 15 12 9 8 7 4 6 11 12 11 8 5 3 4 6 9 9 5 7 14 13 11 10 7 6 8 9 8 6 6 7 7 9 11 10 11 11 8 6 7 8 9 10 11 11 12 13 13 13 15
11 12 5 11 10 0 6 7 8 11 2 6 9 5 9 4 2 10 6 1 7 12 13 10 1 5 15 11 9 14 9 8 10 9 15 17 13 12 11 9 8 5 6 10 12 10 7 5 5 6 7 13 13 -3 -5 11 15 10 10 9 7 8 8 8 6 6 7 7 8 12 11 10 10 8 7 8 8 9 11 12 11 10 12 16 17 14
15 13 4 12 11 4 10 11 14 16 3 6 14 10 9 8 9 12 7 5 7 5 7 4 -3 3 11 9 6 5 6 9 8 9 15 14 9 7 8 8 9 10 8 6 7 7 8 8 6 6 6 11 17 4 -3 10 14 6 7 9 7 6 7 8 8 7 7 7 8 12 12 10 8 7 7 6 6 7 8 10 11 9 8 13 22 22
14 11 6 10 10 10 16 11 12 18 9 8 16 12 9 15 19 15 13 13 7 4 8 5 4 7 7 8 5 1 6 10 9 11 13 12 13 10 9 12 14 16 15 13 12 10 12 13 9 8 10 13 15 9 5 10 6 1 7 10 8 7 5 6 8 8 9 8 9 12 12 10 8 7 6 4 4 4 5 7 9 10 8 8 19 30
13 13 12 14 19 21 14 8 9 16 14 9 11 9 10 17 14 9 14 15 8 8 11 10 9 8 10 11 3 2 11 7 6 15 12 7 13 15 13 14 14 16 16 15 17 17 16 15 13 12 13 12 11 9 8 8 4 2 7 9 10 10 8 6 6 7 9 9 9 12 12 11 8 6 5 3 3 3 3 5 5 8 10 7 10 26
13 13 13 17 25 21 10 11 14 12 12 10 10 10 9 12 9 8 12 10 9 10 10 9 5 5 13 12 3 4 9 2 2 13 9 7 18 23 16 7 5 11 17 14 12 13 14 14 14 13 12 11 12 12 11 9 7 6 8 11 12 12 11 9 8 8 9 9 10 11 12 11 9 7 5 3 2 3 3 4 4 5 9 10 7 13
13 14 14 16 19 15 10 13 13 9 9 10 12 11 8 7 8 11 11 8 9 9 8 7 3 5 10 9 4 3 4 2 4 9 9 12 22 26 14 -1 -1 12 20 20 15 11 10 12 13 12 11 8 7 9 11 10 8 5 8 11 12 12 11 9 11 11 10 10 10 12 12 10 9 6 4 3 3 4 4 4 5 5 6 9 9 10
13 13 13 14 14 14 12 11 9 9 11 13 13 11 7 7 7 7 7 7 7 4 3 6 7 9 10 8 4 -0 1 5 6 7 10 12 15 17 11 5 8 14 16 19 18 13 10 11 13 12 9 8 8 7 8 9 9 9 10 10 11 12 10 9 11 11 11 11 11 12 12 10 9 7 4 3 3 4 4 4 5 6 6 6 8 11
10 11 12 11 10 11 10 8 11 13 13 13 12 10 9 10 10 8 6 5 5 4 4 6 9 10 9 8 4 1 3 4 5 6 7 8 8 8 10 12 14 12 13 17 16 12 11 15 19 17 13 11 10 7 7 9 10 12 11 9 9 11 10 9 9 10 10 11 12 13 14 11 10 8 5 4 4 5 4 4 4 4 6 6 6 8
6 9 12 12 12 12 10 8 8 9 11 12 9 9 9 9 8 6 5 4 5 8 8 7 6 4 3 3 1 3 5 3 5 4 4 7 7 7 9 11 13 10 11 17 17 13 13 15 16 14 11 10 9 8 9 10 10 9 9 8 7 8 9 9 9 9 9 10 12 14 15 13 10 9 6 5 5 5 5 4 3 3 4 6 7 7
7 10 11 12 12 11 13 14 9 7 10 13 13 11 8 6 5 4 4 6 7 8 6 4 4 2 1 1 2 4 4 4 6 4 5 7 5 6 7 8 11 9 8 16 18 13 14 15 14 12 10 11 12 13 12 12 12 11 10 9 9 10 9 8 9 10 9 10 11 13 14 14 11 9 7 6 5 5 5 4 3 2 3 4 6 8
9 8 8 10 8 7 10 11 10 9 8 8 9 10 9 7 7 7 5 3 4 6 5 4 4 4 4 4 4 6 7 7 7 5 7 8 5 6 8 8 11 10 11 16 15 13 19 22 21 19 14 11 12 13 13 12 12 13 13 11 11 11 10 9 9 10 10 9 10 12 14 14 13 10 8 7 6 6 5 5 4 2 2 3 5 7
5 3 5 7 7 8 8 6 7 9 8 6 5 7 9 8 7 8 8 5 2 3 7 7 5 6 9 9 8 10 10 6 6 9 10 8 5 7 8 7 9 10 13 15 12 12 21 23 22 21 16 10 9 13 17 17 13 12 12 12 12 12 12 12 11 10 11 11 11 13 14 14 14 11 9 8 7 7 6 5 4 3 2 3 5 7
4 4 4 3 3 6 8 9 8 7 6 7 7 6 5 5 7 8 8 7 6 6 8 9 10 10 11 11 13 13 11 6 7 12 11 7 7 9 8 7 9 11 13 15 13 11 15 20 21 22 20 12 8 11 17 17 14 13 12 12 10 9 10 11 11 11 11 13 13 13 14 15 14 12 10 9 8 7 7 5 4 3 3 3 5 7
6 6 6 5 5 5 5 7 8 9 9 9 9 10 8 5 5 6 6 7 10 10 8 7 10 11 8 10 14 13 9 8 8 8 6 6 8 9 9 10 10 10 11 14 14 12 11 16 23 23 20 17 12 11 14 15 14 13 14 15 14 12 14 13 13 12 10 12 13 13 14 15 14 14 12 9 9 8 7 6 4 3 3 4 5 7
6 7 7 6 5 6 6 6 6 7 9 9 8 8 9 9 7 6 5 7 9 10 10 9 8 7 5 5 9 9 8 11 11 9 7 7 9 10 11 13 10 8 10 11 12 14 10 11 21 23 17 15 14 13 14 15 13 12 13 15 15 15 13 9 10 11 9 10 13 13 14 14 15 15 13 12 11 9 8 6 5 5 5 5 5 7
7 6 6 6 5 5 5 5 5 5 6 7 6 6 6 7 8 6 4 5 7 8 9 8 6 6 5 3 5 7 7 8 7 7 9 8 9 10 9 7 5 6 10 9 10 14 13 10 13 18 17 14 12 11 11 11 10 11 12 12 12 14 13 9 9 10 8 9 11 12 12 14 14 14 14 14 12 11 10 8 7 6 6 6 6 8
8 6 5 5 5 5 4 4 4 4 5 4 5 7 5 4 5 5 4 2 3 6 6 4 2 4 4 0 -1 1 1 2 3 4 7 8 8 9 6 5 5 6 9 10 9 11 14 12 8 11 16 15 12 11 10 9 9 10 11 9 10 13 14 12 11 9 8 9 10 11 12 13 15 15 15 15 13 12 11 10 9 8 7 8 8 9
8 8 7 5 5 4 4 4 4 4 6 4 3 5 6 6 6 6 8 5 2 3 5 5 4 3 4 2 -1 1 2 3 6 6 6 6 6 6 7 10 10 9 9 8 9 9 11 13 10 9 13 14 14 14 11 10 10 10 10 9 8 10 11 11 11 11 11 11 11 12 12 12 14 16 16 16 15 14 13 11 10 9 9 9 9 10
8 9 8 7 7 6 3 4 5 4 4 4 4 4 5 8 7 5 9 9 6 4 4 6 6 5 7 8 5 5 5 4 5 4 3 5 8 8 10 14 11 9 10 8 9 10 9 10 11 10 10 11 12 14 14 13 11 10 10 10 9 9 9 9 10 11 12 12 13 13 12 12 13 14 14 15 16 16 15 13 12 11 10 10 10 9
8 9 10 9 10 8 5 6 7 5 4 4 4 5 4 6 7 5 7 8 7 6 6 8 6 8 13 12 7 5 6 6 6 7 6 6 9 9 8 12 11 7 9 9 8 10 10 10 12 11 10 9 10 12 15 15 13 11 10 10 10 11 10 10 10 11 11 11 11 11 11 13 14 14 14 14 14 14 15 14 13 12 11 10 10 9
8 9 10 12 15 14 7 5 6 6 7 6 4 4 4 5 7 7 7 8 6 5 7 8 6 7 12 11 7 6 7 8 9 9 8 5 6 7 6 8 12 11 11 9 6 7 9 10 11 10 9 10 10 10 12 15 16 14 10 7 8 10 11 11 11 11 10 11 11 10 10 11 13 14 15 16 15 13 13 14 13 12 12 11 10 10
8 8 8 11 17 17 10 8 8 8 10 10 5 5 5 5 6 7 7 7 7 6 6 7 6 6 9 9 7 8 9 10 10 8 7 5 5 7 6 7 8 9 11 11 8 8 8 8 9 9 9 9 9 9 11 14 16 16 14 11 7 8 8 9 10 10 9 9 10 11 10 10 11 13 14 16 16 13 12 13 12 12 11 10 10 10
7 7 8 7 9 10 8 10 12 9 10 11 8 7 6 6 8 7 7 7 7 6 5 5 6 5 6 7 6 8 9 8 8 7 5 5 6 6 6 7 7 7 9 9 10 10 9 9 9 8 9 9 10 9 10 12 14 15 16 16 13 10 6 6 8 10 10 9 9 10 11 10 10 11 12 15 16 14 13 12 12 11 11 10 10 10
5 6 7 7 7 7 6 10 11 8 8 10 10 8 5 7 9 7 7 9 9 7 5 5 6 6 6 7 6 6 7 6 6 7 6 5 7 6 4 6 7 7 7 7 8 11 12 14 14 12 10 10 10 10 9 11 13 15 15 16 16 14 11 8 7 7 8 9 8 9 10 11 11 11 12 14 15 15 13 12 12 11 10 10 11 11
4 5 6 7 8 7 6 8 9 8 8 8 9 10 6 6 9 8 7 8 9 9 7 5 5 5 6 7 6 5 6 5 5 7 8 7 6 6 5 6 6 7 8 7 6 9 11 13 13 12 13 13 11 10 10 10 10 13 15 15 15 14 13 13 12 10 7 7 7 7 8 9 10 11 12 13 15 15 13 11 11 12 12 12 12 12
4 4 5 6 6 6 7 8 9 10 11 8 7 10 9 6 7 8 7 7 8 7 8 8 5 4 6 7 6 6 7 7 7 8 9 8 7 7 7 8 8 8 8 7 4 5 6 9 9 9 10 11 10 10 11 10 10 11 13 15 15 13 13 15 16 16 13 10 9 8 7 7 8 9 11 13 15 16 15 13 11 11 12 13 13 11
4 4 4 5 6 6 6 7 9 13 12 7 6 9 10 8 7 8 7 7 7 5 6 11 6 1 6 9 7 6 7 7 9 10 9 7 7 7 7 8 9 7 7 8 7 4 3 6 9 8 8 8 7 10 12 12 11 11 12 13 13 12 13 15 16 16 15 14 12 11 10 9 8 7 9 11 14 15 15 14 12 11 12 13 13 11
3 4 5 5 5 6 6 7 9 12 9 6 7 9 9 9 7 7 7 8 8 4 5 12 8 1 4 8 7 6 7 8 10 11 10 7 5 5 6 7 7 7 7 8 9 6 4 5 8 9 9 9 8 9 10 11 11 11 11 11 10 10 12 13 14 15 14 14 14 13 12 11 9 7 6 8 12 15 16 14 13 12 11 11 11 11
3 5 5 5 6 6 7 8 8 10 8 7 9 9 9 9 7 6 7 8 8 5 5 10 9 3 4 8 7 6 7 8 10 11 10 9 6 5 5 6 7 8 8 7 7 8 6 5 7 9 10 10 10 10 9 10 10 10 11 11 11 10 10 11 13 14 14 14 13 13 13 12 11 9 7 6 8 13 16 16 14 13 11 9 9 10
4 5 4 5 7 7 7 8 9 10 9 8 11 10 8 9 8 5 5 7 7 5 6 9 8 6 6 8 8 8 7 7 9 9 9 9 7 6 5 5 5 6 8 7 6 8 8 5 5 8 9 9 9 9 9 10 11 10 10 12 12 10 9 11 11 12 13 13 13 13 13 13 12 11 10 8 6 7 12 15 15 13 11 9 8 8
5 4 5 7 7 7 8 9 11 11 9 8 11 10 7 9 9 6 6 6 6 6 8 9 7 7 8 8 9 9 8 6 7 8 7 7 7 6 5 5 4 5 8 8 6 8 9 7 5 5 7 7 7 8 10 11 11 12 12 12 14 14 11 10 10 11 13 13 13 13 14 13 14 14 13 12 10 7 8 11 14 14 12 9 8 7
5 4 6 7 8 9 10 11 12 11 8 7 8 8 8 9 8 6 6 5 6 8 9 8 6 7 7 7 8 11 9 6 6 6 5 5 5 5 6 6 5 6 8 9 9 9 9 9 7 5 5 6 6 6 8 9 10 12 13 13 15 16 15 13 10 10 11 12 12 13 13 14 15 14 13 13 13 10 7 7 10 14 14 12 9 8
5 6 6 7 9 9 10 13 14 11 10 10 8 8 11 8 5 7 8 5 6 9 8 7 7 7 7 6 7 10 11 8 7 8 7 4 3 4 5 6 5 5 7 8 8 8 8 8 8 7 5 6 6 5 5 6 7 8 9 10 12 14 14 14 14 12 10 10 11 11 12 14 14 13 12 11 13 14 11 7 7 10 14 15 13 11
6 6 6 8 9 9 10 13 14 13 13 14 10 8 9 6 5 8 8 5 6 8 6 5 6 6 6 7 7 9 11 9 9 11 10 7 6 6 5 6 6 6 6 6 7 7 7 7 8 9 7 5 6 6 4 5 5 6 6 7 9 11 11 12 14 14 12 10 10 11 12 13 14 15 14 13 13 14 13 11 8 7 9 13 15 14
7 6 7 8 9 9 11 13 14 14 13 13 11 7 6 7 8 8 7 6 6 6 4 5 5 5 7 7 7 9 11 9 9 10 11 11 11 10 9 8 8 7 6 5 7 7 7 7 8 10 10 7 5 6 6 5 5 6 7 7 7 10 11 12 13 14 13 12 10 10 10 11 13 14 16 15 13 13 14 14 11 7 6 7 10 14
7 7 9 9 9 10 11 12 15 16 11 10 10 7 6 10 11 7 5 5 5 6 5 5 5 6 7 8 7 9 10 8 8 9 10 10 12 12 12 10 8 8 7 6 7 7 7 8 8 9 11 10 6 5 6 5 4 5 6 7 7 7 7 10 12 13 13 13 12 10 10 10 11 13 15 16 15 14 14 15 14 11 7 5 5 7
8 8 9 9 9 10 11 12 15 14 9 8 10 8 6 9 9 6 5 3 3 5 6 4 5 6 6 7 6 6 7 6 6 7 7 7 8 10 11 11 10 9 9 8 8 8 8 9 9 9 11 11 9 6 5 5 4 3 4 6 8 7 5 6 9 12 14 14 13 12 10 9 11 12 14 15 16 16 15 15 16 16 11 7 5 3
8 8 9 9 9 9 11 13 13 12 9 8 10 9 7 8 8 6 6 3 1 4 6 4 5 6 6 6 5 4 4 4 4 5 5 4 5 5 6 7 8 9 10 9 8 9 9 9 10 10 11 11 10 8 6 6 6 5 4 5 6 7 7 6 7 10 13 15 15 13 11 10 10 11 12 13 15 16 16 15 16 18 17 13 9 5
9 10 9 9 9 10 12 13 12 11 9 8 9 8 6 7 6 4 5 5 3 4 6 4 4 5 5 5 5 3 3 2 2 4 3 3 3 4 4 5 6 7 7 7 7 8 9 10 11 11 11 10 10 9 7 6 6 6 5 5 5 6 6 7 7 8 10 13 15 15 13 11 10 10 10 12 13 14 16 16 15 17 19 18 14 10
10 10 8 7 7 8 9 10 10 10 9 9 8 7 6 6 4 3 6 6 3 4 6 4 4 5 4 4 4 3 3 3 3 4 4 3 3 3 3 4 5 5 6 6 6 6 8 10 11 12 11 10 10 11 9 7 6 6 5 5 5 5 5 5 5 6 7 11 13 15 14 13 12 10 9 9 11 13 14 15 15 15 18 20 18 14
9 9 6 5 8 10 10 10 8 6 7 7 7 8 9 8 4 4 6 5 3 4 5 4 4 4 3 3 3 3 4 4 4 4 4 4 3 3 3 4 4 5 7 7 6 5 7 9 11 11 12 11 10 10 10 9 8 7 6 6 5 5 5 5 5 5 6 8 11 13 14 14 13 11 9 9 10 12 13 13 14 15 18 21 20 16
11 10 8 7 8 8 7 10 10 6 5 6 7 7 7 3 0 2 5 7 4 2 3 4 4 4 4 4 5 5 4 3 4 4 4 4 4 3 3 4 5 7 8 9 7 7 7 8 10 10 11 12 11 10 9 9 9 8 7 7 6 6 6 5 5 6 5 6 8 11 14 15 14 12 11 10 10 12 13 12 13 14 17 21 20 15
10 9 9 10 8 5 5 8 9 8 7 7 6 5 4 1 1 3 6 6 4 2 4 5 4 3 4 5 5 5 5 4 4 5 5 6 5 4 5 6 7 8 9 9 8 7 7 8 9 10 11 11 11 11 9 8 9 9 7 6 6 7 7 6 5 6 6 5 6 9 12 14 14 13 13 13 12 12 12 11 12 13 15 19 21 16
9 7 7 7 6 7 8 8 6 5 5 6 4 3 2 2 2 3 4 4 3 2 5 6 4 4 4 4 5 6 6 6 6 6 6 6 5 5 6 6 6 7 8 9 9 8 8 9 10 10 12 11 10 10 10 8 8 8 8 7 6 6 7 7 6 6 5 6 6 7 10 13 14 14 14 15 15 14 12 11 11 12 13 16 19 17
8 7 6 5 5 7 7 6 5 4 5 5 3 2 2 3 2 1 2 4 4 4 7 7 6 4 4 4 4 5 5 6 6 6 6 7 7 7 6 5 6 9 9 8 9 10 9 10 10 11 12 11 10 9 10 8 8 8 8 7 7 6 6 7 8 7 6 6 6 6 7 10 12 13 14 16 17 15 13 11 12 12 13 15 17 17
9 8 7 5 4 4 4 4 5 5 5 3 1 1 2 2 2 2 3 5 7 7 7 7 6 5 5 5 4 4 5 7 7 6 7 8 7 6 5 5 7 9 10 9 10 11 10 10 12 13 13 12 10 9 9 9 8 7 7 7 8 7 7 7 7 7 7 7 7 7 7 8 10 12 13 15 17 16 13 12 12 12 12 14 14 13
8 7 8 7 4 2 4 5 3 3 4 3 2 3 4 4 3 3 5 7 9 8 7 6 6 5 4 3 3 5 7 7 7 8 9 8 6 4 5 6 7 9 11 10 10 11 11 10 12 13 12 12 10 9 9 9 8 7 7 7 8 8 7 7 7 7 7 8 8 8 7 8 9 11 13 14 17 16 12 10 12 13 13 14 13 10
8 6 6 8 6 4 6 6 4 3 5 5 4 4 4 4 3 4 6 9 10 8 6 6 6 6 6 6 7 9 10 9 9 10 9 7 5 5 5 6 7 10 10 9 10 12 12 11 13 13 11 11 11 10 10 10 9 8 7 7 8 8 7 7 7 7 8 9 9 9 9 9 9 10 12 14 17 16 12 8 9 12 14 14 13 11
10 9 7 9 9 7 7 7 6 7 8 8 6 5 5 5 5 6 8 10 10 8 6 5 5 5 6 8 9 10 11 11 11 10 8 6 5 5 6 7 8 9 10 9 10 12 12 12 12 12 11 11 11 11 11 10 9 7 7 7 8 7 6 7 7 7 8 9 9 10 10 10 10 10 11 14 17 17 14 9 7 9 12 13 12 11
8 9 8 8 8 8 8 7 6 7 7 7 7 7 8 8 8 8 8 8 8 6 5 5 6 6 6 7 7 8 9 10 10 7 5 4 5 5 6 7 7 8 9 9 10 11 11 11 11 11 11 12 11 11 10 9 8 7 7 7 7 6 6 7 7 7 8 9 10 10 10 11 11 10 11 13 16 17 16 12 10 10 12 12 12 12
Height
5829 5829 5829 5829 5829 5829 5828 5827 5826 5826 5826 5826 5826 5827 5827 5827 5826 5826 5826 5826 5826 5826 5826 5825 5825 5824 5823 5821 5820 5819 5817 5815 5813 5812 5811 5810 5809 5809 5809 5809 5809 5808 5806 5805 5803 5802 5800 5799 5799 5799 5798 5797 5797 5797 5797 5797 5796 5795 5794 5793 5792 5791 5790 5789 5789 5789 5789 5788 5787 5787 5786 5786 5785 5785 5784 5784 5784 5783 5782 5781 5780 5779 5779 5778 5777 5777
5829 5829 5829 5829 5829 5828 5828 5827 5826 5826 5826 5826 5826 5826 5826 5827 5826 5826 5825 5826 5826 5826 5826 5826 5825 5824 5822 5820 5819 5818 5816 5813 5810 5809 5809 5808 5807 5806 5806 5806 5805 5804 5803 5802 5800 5799 5798 5798 5797 5796 5796 5795 5795 5795 5795 5794 5794 5793 5791 5790 5789 5789 5788 5788 5787 5787 5787 5786 5785 5785 5784 5784 5784 5783 5783 5783 5782 5782 5780 5780 5779 5778 5777 5776 5775 5775
5828 5829 5829 5828 5828 5827 5827 5827 5827 5827 5826 5826 5826 5826 5826 5826 5827 5826 5826 5826 5826 5826 5826 5826 5825 5824 5822 5821 5820 5819 5817 5814 5811 5808 5807 5807 5805 5804 5802 5801 5801 5800 5800 5799 5798 5797 5796 5796 5795 5794 5794 5793 5793 5793 5793 5792 5792 5791 5789 5788 5787 5787 5787 5786 5785 5785 5785 5785 5783 5782 5782 5782 5782 5781 5781 5781 5781 5780 5779 5778 5777 5776 5775 5774 5773 5772
5829 5828 5828 5827 5827 5827 5827 5827 5827 5827 5827 5827 5827 5827 5826 5826 5827 5826 5826 5826 5826 5826 5826 5826 5825 5824 5823 5822 5822 5820 5818 5816 5814 5811 5807 5805 5804 5802 5801 5799 5798 5797 5796 5795 5795 5795 5794 5793 5793 5792 5792 5792 5791 5791 5790 5790 5790 5789 5788 5787 5786 5785 5785 5784 5783 5783 5783 5783 5782 5780 5780 5780 5780 5780 5780 5779 5779 5779 5778 5777 5776 5775 5774 5773 5771 5770
5829 5829 5828 5827 5827 5827 5828 5827 5827 5827 5827 5827 5827 5827 5826 5826 5826 5826 5826 5826 5825 5825 5825 5825 5825 5824 5823 5823 5822 5820 5818 5817 5815 5813 5810 5807 5804 5802 5801 5799 5798 5797 5795 5794 5793 5793 5792 5792 5792 5791 5791 5790 5789 5788 5788 5787 5787 5786 5785 5784 5784 5783 5782 5782 5781 5781 5781 5781 5780 5778 5778 5778 5778 5778 5778 5778 5777 5777 5777 5776 5775 5774 5773 5771 5770 5769
5830 5829 5828 5828 5828 5828 5828 5827 5827 5827 5827 5827 5827 5827 5826 5826 5826 5826 5825 5825 5825 5825 5825 5825 5825 5824 5823 5823 5821 5820 5818 5816 5815 5813 5812 5809 5806 5803 5801 5800 5799 5797 5796 5794 5792 5791 5790 5790 5790 5790 5789 5788 5787 5787 5786 5784 5784 5783 5783 5782 5781 5780 5780 5779 5779 5778 5778 5778 5778 5776 5776 5775 5776 5776 5776 5776 5776 5775 5775 5775 5774 5772 5771 5770 5769 5768
5831 5830 5829 5829 5829 5829 5828 5828 5828 5828 5827 5827 5827 5827 5826 5826 5826 5826 5826 5826 5826 5826 5825 5825 5825 5824 5824 5823 5821 5819 5817 5815 5814 5812 5811 5808 5806 5804 5802 5801 5799 5797 5795 5793 5792 5790 5789 5788 5788 5787 5787 5786 5785 5785 5784 5782 5781 5781 5780 5780 5779 5778 5777 5777 5776 5775 5775 5775 5775 5774 5774 5773 5773 5774 5774 5774 5774 5774 5773 5773 5772 5771 5770 5769 5768 5767
5832 5831 5831 5830 5830 5830 5829 5829 5828 5828 5828 5828 5828 5827 5827 5827 5827 5827 5826 5826 5826 5826 5825 5824 5824 5824 5824 5822 5820 5819 5817 5815 5813 5811 5809 5808 5806 5804 5803 5801 5799 5797 5795 5793 5791 5790 5788 5787 5786 5785 5784 5784 5783 5782 5781 5780 5779 5778 5778 5777 5777 5776 5775 5774 5773 5773 5773 5773 5773 5772 5772 5771 5771 5772 5772 5772 5772 5772 5771 5771 5771 5770 5769 5768 5767 5767
5833 5833 5832 5832 5831 5831 5831 5830 5829 5829 5828 5828 5828 5828 5828 5828 5828 5827 5827 5827 5826 5825 5825 5825 5825 5825 5823 5822 5820 5818 5816 5814 5812 5810 5809 5808 5806 5804 5803 5801 5799 5797 5795 5793 5791 5789 5787 5786 5784 5783 5782 5782 5781 5780 5779 5778 5777 5776 5776 5775 5774 5774 5773 5772 5772 5771 5770 5770 5770 5770 5770 5769 5769 5769 5770 5770 5770 5770 5770 5769 5769 5768 5768 5767 5767 5766
5835 5834 5834 5834 5833 5833 5832 5832 5831 5830 5830 5829 5829 5829 5829 5829 5828 5828 5827 5827 5827 5826 5826 5825 5825 5823 5822 5821 5820 5818 5816 5814 5813 5811 5809 5808 5806 5804 5802 5800 5798 5796 5794 5792 5790 5788 5786 5784 5783 5782 5781 5779 5778 5778 5777 5776 5775 5774 5774 5773 5772 5771 5771 5770 5770 5769 5768 5768 5768 5768 5767 5767 5767 5767 5768 5768 5768 5768 5768 5767 5767 5766 5766 5766 5765 5765
5836 5836 5835 5835 5834 5834 5833 5833 5833 5832 5832 5831 5830 5830 5830 5829 5829 5828 5828 5828 5828 5827 5826 5825 5824 5822 5821 5820 5819 5818 5816 5814 5813 5812 5810 5808 5806 5804 5802 5799 5797 5795 5793 5791 5788 5786 5784 5783 5781 5780 5779 5777 5776 5776 5775 5775 5773 5772 5771 5771 5770 5770 5769 5769 5768 5767 5766 5766 5766 5765 5765 5764 5764 5765 5765 5765 5766 5766 5765 5765 5764 5764 5764 5764 5764 5763
5838 5837 5836 5836 5836 5835 5835 5835 5834 5834 5834 5833 5832 5831 5830 5830 5829 5829 5829 5828 5828 5827 5826 5825 5823 5822 5821 5820 5819 5817 5816 5814 5813 5812 5810 5808 5806 5804 5802 5799 5797 5795 5792 5790 5787 5785 5783 5781 5779 5778 5777 5776 5775 5774 5774 5773 5772 5770 5770 5769 5769 5769 5768 5767 5766 5765 5764 5764 5763 5763 5762 5762 5762 5762 5763 5763 5763 5763 5763 5763 5762 5762 5762 5762 5762 5761
5839 5838 5837 5837 5837 5837 5836 5836 5836 5835 5835 5834 5833 5833 5832 5831 5830 5830 5829 5828 5827 5826 5825 5824 5823 5823 5822 5821 5819 5817 5815 5813 5811 5810 5809 5808 5805 5803 5802 5799 5797 5795 5792 5789 5787 5785 5782 5780 5778 5777 5776 5775 5774 5773 5772 5772 5771 5769 5768 5768 5768 5767 5766 5766 5764 5763 5762 5762 5761 5761 5760 5760 5759 5760 5760 5760 5760 5761 5761 5760 5760 5760 5760 5760 5759 5759
5840 5840 5839 5839 5838 5838 5838 5837 5837 5836 5835 5835 5835 5834 5833 5832 5831 5830 5829 5828 5827 5826 5825 5824 5823 5823 5822 5820 5818 5817 5815 5813 5811 5809 5808 5806 5804 5803 5801 5799 5797 5795 5792 5789 5787 5784 5782 5780 5778 5776 5776 5775 5774 5773 5772 5771 5770 5768 5767 5766 5766 5765 5764 5764 5763 5762 5761 5760 5759 5759 5758 5758 5757 5757 5757 5757 5758 5758 5758 5758 5758 5758 5758 5758 5757 5757
5842 5841 5841 5840 5840 5839 5838 5838 5837 5837 5837 5836 5836 5835 5834 5832 5832 5830 5829 5828 5827 5826 5825 5825 5824 5823 5821 5819 5818 5817 5815 5814 5812 5809 5807 5805 5804 5802 5800 5798 5797 5794 5791 5789 5786 5784 5782 5780 5778 5776 5775 5774 5774 5773 5772 5770 5769 5768 5766 5765 5764 5763 5762 5762 5761 5760 5759 5758 5758 5757 5756 5755 5755 5754 5754 5755 5755 5755 5755 5755 5755 5755 5755 5755 5755 5755
5843 5842 5842 5841 5840 5839 5839 5838 5838 5838 5837 5837 5836 5836 5835 5833 5832 5831 5830 5829 5828 5828 5826 5825 5824 5822 5820 5819 5818 5817 5815 5813 5811 5809 5807 5805 5803 5801 5799 5797 5795 5793 5791 5788 5786 5784 5782 5780 5778 5776 5775 5774 5773 5772 5771 5770 5769 5767 5766 5765 5763 5762 5762 5761 5760 5759 5758 5757 5756 5755 5754 5753 5752 5752 5752 5752 5752 5752 5752 5753 5753 5753 5753 5753 5753 5752
5844 5843 5843 5842 5841 5840 5840 5839 5839 5838 5838 5837 5836 5835 5835 5834 5833 5832 5831 5829 5828 5827 5826 5824 5823 5822 5820 5819 5818 5816 5814 5812 5810 5809 5807 5805 5803 5801 5799 5796 5794 5792 5790 5788 5785 5783 5781 5780 5778 5776 5774 5773 5772 5771 5770 5768 5767 5766 5765 5764 5763 5762 5761 5760 5759 5758 5756 5756 5755 5754 5752 5751 5750 5750 5749 5749 5749 5749 5750 5750 5750 5750 5750 5750 5750 5750
5844 5844 5843 5843 5842 5841 5841 5840 5839 5839 5838 5838 5837 5836 5835 5834 5833 5832 5832 5830 5828 5827 5826 5824 5823 5822 5820 5818 5817 5815 5813 5811 5810 5808 5806 5804 5802 5800 5798 5796 5794 5791 5789 5787 5785 5784 5782 5780 5777 5775 5773 5772 5771 5769 5768 5766 5765 5765 5764 5763 5762 5761 5759 5758 5757 5756 5755 5754 5753 5752 5751 5749 5749 5748 5747 5747 5747 5747 5747 5747 5747 5747 5747 5747 5747 5747
5845 5844 5844 5843 5843 5842 5841 5841 5840 5840 5839 5839 5838 5836 5835 5835 5834 5833 5832 5830 5828 5827 5826 5825 5823 5822 5821 5819 5817 5815 5813 5812 5810 5808 5806 5804 5802 5800 5798 5796 5793 5791 5789 5786 5785 5783 5781 5780 5777 5775 5773 5771 5769 5768 5766 5765 5764 5763 5762 5761 5760 5759 5758 5757 5756 5755 5754 5753 5752 5750 5749 5747 5746 5746 5745 5745 5744 5744 5744 5744 5744 5744 5744 5744 5744 5744
5845 5844 5844 5843 5843 5843 5842 5842 5841 5840 5840 5839 5838 5837 5836 5835 5834 5833 5832 5831 5829 5828 5826 5825 5824 5822 5821 5819 5818 5816 5814 5812 5810 5808 5806 5804 5802 5800 5798 5796 5793 5791 5788 5786 5784 5782 5781 5779 5777 5774 5772 5771 5769 5768 5766 5764 5763 5762 5761 5760 5759 5758 5757 5756 5755 5754 5752 5751 5750 5748 5747 5745 5744 5743 5743 5742 5742 5741 5741 5741 5741 5741 5741 5741 5740 5740
5845 5844 5844 5843 5843 5842 5842 5842 5841 5841 5840 5839 5838 5837 5836 5835 5834 5833 5832 5831 5830 5828 5827 5825 5824 5822 5821 5819 5817 5816 5814 5812 5810 5809 5807 5805 5803 5801 5798 5796 5794 5791 5789 5786 5784 5782 5780 5778 5777 5775 5773 5771 5770 5768 5766 5764 5763 5761 5760 5759 5758 5757 5755 5754 5754 5753 5751 5750 5748 5747 5745 5744 5742 5741 5741 5740 5740 5739 5739 5738 5738 5738 5738 5738 5738 5737
5845 5844 5844 5843 5842 5842 5842 5842 5842 5841 5840 5838 5837 5836 5836 5835 5834 5833 5832 5831 5830 5828 5827 5825 5824 5822 5821 5819 5817 5816 5814 5813 5811 5809 5807 5805 5803 5801 5799 5797 5794 5792 5789 5786 5784 5781 5779 5778 5777 5775 5773 5771 5769 5767 5765 5764 5762 5761 5759 5757 5756 5755 5754 5753 5752 5751 5750 5748 5747 5745 5743 5742 5741 5740 5739 5738 5737 5737 5736 5736 5736 5735 5735 5735 5735 5735
5845 5844 5844 5843 5842 5842 5842 5842 5841 5840 5839 5838 5837 5836 5835 5834 5833 5832 5831 5830 5829 5827 5826 5825 5823 5822 5820 5818 5817 5815 5814 5813 5811 5808 5806 5804 5802 5800 5799 5797 5795 5792 5790 5787 5784 5781 5779 5777 5776 5774 5772 5770 5768 5766 5764 5763 5761 5760 5758 5756 5755 5754 5752 5751 5750 5749 5747 5746 5745 5743 5742 5740 5739 5738 5737 5736 5735 5735 5734 5734 5733 5733 5733 5732 5732 5732
5845 5844 5844 5843 5842 5842 5841 5841 5840 5839 5838 5838 5836 5835 5835 5834 5833 5832 5830 5829 5828 5826 5825 5824 5822 5821 5820 5818 5817 5815 5814 5811 5809 5807 5805 5803 5802 5800 5798 5796 5794 5792 5790 5787 5784 5782 5779 5777 5775 5773 5771 5769 5767 5765 5763 5761 5760 5759 5757 5756 5754 5753 5751 5750 5749 5747 5746 5744 5743 5741 5740 5739 5738 5736 5735 5734 5734 5733 5732 5732 5731 5730 5730 5730 5729 5729
5844 5844 5844 5843 5842 5841 5841 5840 5840 5839 5838 5837 5836 5835 5834 5833 5833 5832 5830 5829 5828 5826 5825 5823 5822 5821 5819 5818 5816 5814 5812 5810 5808 5807 5805 5803 5801 5799 5798 5796 5794 5792 5790 5787 5784 5782 5779 5777 5775 5773 5771 5769 5767 5765 5763 5761 5759 5757 5756 5755 5753 5752 5750 5749 5748 5746 5745 5743 5741 5740 5738 5737 5736 5735 5733 5732 5731 5731 5730 5729 5729 5728 5727 5727 5726 5726
5844 5843 5843 5842 5842 5841 5840 5839 5839 5838 5837 5836 5835 5834 5833 5833 5832 5831 5830 5829 5828 5826 5825 5823 5821 5820 5819 5817 5815 5813 5811 5809 5808 5806 5805 5803 5801 5799 5797 5796 5794 5792 5790 5787 5784 5782 5779 5777 5775 5772 5771 5769 5767 5765 5763 5761 5759 5757 5755 5753 5752 5750 5748 5747 5746 5745 5743 5742 5740 5739 5737 5736 5734 5733 5732 5730 5729 5728 5728 5727 5726 5726 5725 5724 5724 5724
5843 5842 5842 5842 5841 5840 5839 5839 5838 5837 5836 5835 5834 5834 5833 5832 5831 5830 5829 5828 5827 5826 5824 5823 5821 5819 5818 5816 5815 5813 5811 5810 5808 5807 5805 5803 5801 5799 5797 5796 5794 5791 5789 5786 5784 5781 5779 5776 5774 5771 5769 5767 5765 5763 5761 5760 5758 5757 5755 5753 5751 5748 5747 5746 5744 5743 5741 5740 5738 5737 5736 5734 5732 5731 5729 5728 5727 5727 5726 5725 5724 5723 5723 5722 5722 5721
5841 5841 5841 5841 5840 5840 5839 5838 5837 5836 5835 5834 5833 5832 5832 5831 5830 5829 5828 5827 5826 5825 5824 5822 5821 5819 5818 5817 5815 5813 5811 5810 5808 5807 5805 5803 5801 5799 5797 5795 5793 5791 5788 5786 5784 5781 5778 5776 5773 5771 5769 5766 5764 5762 5760 5759 5757 5755 5754 5752 5750 5748 5746 5744 5743 5741 5739 5738 5736 5735 5733 5732 5730 5729 5728 5726 5725 5724 5723 5723 5722 5721 5720 5720 5719 5719
5840 5839 5839 5839 5839 5838 5837 5836 5836 5835 5834 5833 5832 5831 5831 5830 5829 5828 5827 5826 5825 5824 5823 5821 5820 5819 5817 5816 5814 5812 5811 5810 5808 5807 5805 5803 5801 5799 5796 5794 5792 5790 5788 5786 5784 5781 5778 5776 5773 5771 5769 5766 5764 5761 5759 5757 5755 5753 5752 5751 5749 5746 5744 5742 5741 5739 5737 5736 5734 5733 5731 5730 5728 5727 5726 5724 5723 5722 5721 5720 5720 5719 5718 5717 5717 5716
5838 5838 5837 5837 5837 5836 5836 5835 5834 5834 5833 5832 5831 5830 5829 5829 5828 5827 5826 5825 5824 5823 5821 5820 5819 5818 5816 5815 5814 5812 5810 5809 5807 5806 5804 5802 5800 5797 5795 5793 5791 5789 5787 5785 5783 5781 5778 5776 5774 5771 5769 5766 5764 5762 5759 5757 5754 5752 5750 5749 5747 5745 5743 5741 5739 5737 5736 5734 5732 5730 5729 5728 5726 5725 5724 5723 5722 5720 5719 5718 5717 5717 5716 5715 5714 5713
5837 5836 5836 5835 5835 5834 5834 5834 5833 5832 5831 5830 5830 5829 5828 5828 5827 5826 5825 5824 5823 5822 5820 5819 5818 5817 5816 5814 5813 5811 5809 5807 5806 5804 5802 5800 5798 5796 5794 5793 5790 5788 5786 5785 5783 5781 5778 5776 5773 5771 5769 5766 5764 5761 5759 5756 5754 5751 5749 5747 5746 5744 5741 5739 5737 5735 5733 5732 5730 5728 5727 5725 5724 5723 5722 5721 5719 5718 5717 5716 5715 5714 5713 5712 5711 5711
5835 5834 5834 5834 5834 5833 5832 5832 5832 5831 5830 5829 5828 5828 5827 5826 5826 5824 5824 5823 5822 5821 5819 5818 5817 5816 5815 5813 5812 5810 5808 5806 5804 5803 5801 5799 5797 5795 5793 5791 5789 5788 5787 5785 5783 5780 5778 5775 5773 5770 5768 5766 5763 5761 5758 5756 5753 5751 5748 5746 5745 5743 5740 5738 5736 5734 5732 5730 5728 5726 5725 5724 5722 5721 5720 5718 5717 5716 5714 5713 5712 5711 5710 5710 5709 5708
5833 5832 5832 5832 5831 5831 5831 5830 5830 5829 5828 5827 5827 5826 5826 5825 5824 5823 5822 5822 5821 5819 5818 5817 5816 5815 5814 5812 5811 5809 5807 5805 5804 5803 5801 5799 5797 5795 5793 5791 5790 5788 5786 5785 5783 5780 5778 5775 5772 5769 5767 5765 5762 5760 5758 5755 5753 5750 5748 5745 5743 5742 5739 5737 5735 5733 5730 5728 5726 5725 5723 5722 5720 5719 5717 5716 5714 5713 5711 5710 5710 5709 5708 5707 5706 5705
5830 5830 5829 5829 5829 5828 5828 5828 5828 5827 5826 5826 5825 5825 5824 5823 5822 5822 5821 5820 5819 5818 5817 5816 5815 5814 5812 5811 5809 5808 5806 5805 5804 5802 5801 5799 5797 5796 5794 5791 5790 5788 5786 5784 5781 5779 5776 5773 5771 5768 5766 5764 5762 5759 5757 5754 5752 5749 5747 5744 5742 5740 5738 5736 5733 5731 5729 5727 5725 5723 5721 5719 5718 5716 5714 5713 5711 5710 5709 5708 5707 5706 5705 5704 5703 5702
5828 5827 5827 5827 5826 5826 5826 5826 5826 5825 5825 5824 5823 5823 5822 5821 5820 5820 5820 5819 5818 5817 5815 5814 5813 5812 5811 5810 5808 5808 5807 5805 5804 5802 5800 5798 5796 5795 5793 5791 5789 5788 5785 5782 5779 5776 5773 5772 5770 5768 5766 5763 5761 5758 5756 5754 5751 5748 5745 5743 5740 5738 5735 5734 5732 5730 5728 5726 5723 5721 5719 5717 5715 5714 5712 5711 5709 5708 5706 5705 5704 5703 5702 5701 5700 5699
5825 5825 5824 5824 5824 5823 5823 5823 5823 5823 5823 5822 5821 5821 5820 5819 5819 5818 5818 5817 5816 5815 5814 5813 5812 5811 5810 5809 5808 5808 5807 5805 5803 5800 5798 5797 5795 5793 5792 5790 5788 5786 5784 5781 5778 5775 5772 5771 5769 5767 5765 5762 5760 5757 5755 5753 5750 5748 5744 5742 5739 5736 5734 5731 5729 5728 5726 5723 5721 5719 5717 5715 5713 5712 5710 5708 5707 5705 5704 5702 5701 5700 5699 5698 5697 5696
5822 5822 5821 5821 5821 5821 5820 5820 5821 5821 5821 5820 5819 5819 5818 5818 5817 5817 5816 5815 5815 5814 5813 5812 5811 5809 5808 5808 5807 5806 5805 5803 5801 5799 5797 5796 5794 5792 5790 5788 5786 5784 5782 5780 5777 5774 5772 5770 5768 5765 5763 5761 5759 5756 5754 5751 5749 5746 5744 5741 5738 5735 5732 5730 5727 5725 5724 5722 5719 5717 5715 5713 5711 5709 5708 5706 5704 5703 5701 5700 5698 5697 5696 5695 5694 5692
5819 5819 5818 5818 5818 5818 5818 5818 5818 5819 5819 5818 5817 5817 5817 5816 5816 5815 5814 5814 5813 5813 5812 5811 5809 5808 5806 5805 5804 5803 5802 5801 5799 5797 5796 5794 5792 5790 5788 5786 5784 5782 5780 5777 5775 5774 5771 5769 5766 5763 5761 5759 5757 5755 5753 5750 5748 5745 5743 5740 5737 5734 5731 5728 5726 5724 5722 5720 5718 5716 5713 5711 5709 5707 5706 5704 5702 5700 5699 5697 5695 5694 5693 5692 5690 5689
5816 5815 5815 5815 5816 5815 5815 5815 5816 5816 5816 5815 5815 5815 5815 5814 5815 5814 5814 5812 5811 5810 5810 5809 5807 5806 5804 5803 5802 5800 5800 5799 5797 5795 5794 5792 5790 5788 5786 5784 5782 5780 5777 5775 5773 5771 5769 5767 5765 5762 5760 5757 5755 5753 5751 5749 5747 5744 5741 5739 5736 5733 5730 5728 5725 5722 5720 5718 5716 5714 5711 5709 5707 5705 5703 5702 5700 5698 5696 5694 5693 5691 5690 5688 5687 5686
5812 5812 5812 5812 5812 5812 5812 5813 5813 5814 5814 5812 5812 5812 5812 5812 5813 5813 5812 5811 5809 5808 5807 5806 5805 5804 5802 5801 5799 5798 5797 5796 5794 5793 5791 5789 5788 5786 5784 5782 5780 5777 5775 5773 5771 5769 5767 5764 5762 5760 5757 5755 5752 5751 5749 5747 5745 5743 5740 5738 5735 5732 5729 5726 5724 5721 5719 5716 5714 5712 5710 5707 5705 5703 5701 5699 5697 5695 5693 5692 5690 5688 5687 5685 5684 5683
5809 5809 5809 5809 5809 5809 5809 5810 5811 5812 5811 5809 5809 5810 5809 5809 5810 5810 5810 5809 5808 5807 5806 5804 5803 5802 5800 5799 5797 5796 5794 5793 5791 5790 5788 5787 5785 5783 5782 5780 5778 5776 5773 5771 5768 5766 5764 5762 5759 5757 5755 5753 5751 5749 5747 5745 5743 5741 5739 5737 5734 5731 5728 5725 5722 5720 5717 5715 5712 5710 5708 5705 5703 5700 5698 5696 5694 5693 5691 5689 5687 5685 5684 5682 5681 5679
5806 5806 5805 5806 5806 5806 5806 5807 5808 5809 5808 5807 5807 5807 5806 5806 5807 5807 5806 5806 5805 5805 5804 5803 5801 5800 5798 5797 5795 5793 5791 5790 5788 5787 5785 5783 5782 5780 5778 5777 5775 5773 5771 5768 5766 5763 5761 5759 5757 5754 5752 5751 5749 5747 5745 5743 5741 5739 5737 5734 5732 5730 5727 5724 5721 5718 5715 5713 5710 5708 5705 5703 5701 5698 5696 5694 5692 5690 5688 5686 5684 5682 5681 5679 5677 5676
5803 5803 5803 5803 5803 5803 5803 5804 5805 5805 5805 5804 5805 5804 5803 5803 5804 5804 5803 5803 5802 5801 5800 5799 5798 5797 5796 5794 5792 5790 5788 5787 5785 5784 5782 5781 5779 5777 5775 5773 5772 5770 5768 5766 5764 5761 5759 5757 5754 5752 5750 5748 5746 5745 5743 5741 5738 5736 5734 5732 5730 5727 5725 5722 5719 5716 5713 5710 5708 5706 5703 5701 5698 5696 5693 5691 5689 5687 5685 5683 5681 5679 5678 5676 5674 5673
5800 5800 5800 5800 5799 5799 5800 5801 5802 5802 5802 5802 5801 5801 5801 5801 5801 5801 5800 5800 5799 5798 5797 5795 5794 5793 5793 5792 5790 5788 5786 5784 5783 5781 5780 5778 5777 5775 5772 5770 5768 5767 5766 5764 5762 5759 5757 5755 5752 5750 5747 5745 5743 5741 5740 5738 5736 5733 5731 5729 5727 5725 5723 5720 5718 5715 5711 5708 5706 5703 5701 5698 5696 5693 5691 5689 5686 5684 5682 5680 5678 5676 5675 5673 5672 5670
5797 5797 5797 5796 5796 5796 5797 5798 5798 5799 5799 5799 5798 5798 5798 5798 5798 5797 5797 5796 5795 5794 5793 5792 5790 5789 5788 5787 5786 5785 5784 5782 5781 5779 5777 5776 5774 5772 5770 5767 5765 5764 5762 5761 5759 5757 5754 5752 5750 5747 5745 5742 5740 5738 5736 5734 5733 5731 5728 5726 5724 5722 5720 5718 5715 5712 5710 5706 5703 5701 5698 5696 5693 5691 5688 5686 5684 5682 5680 5678 5675 5673 5672 5670 5669 5667
5793 5793 5792 5792 5792 5793 5794 5795 5796 5796 5796 5796 5795 5795 5795 5795 5795 5794 5794 5793 5791 5790 5788 5787 5785 5783 5782 5782 5781 5780 5779 5778 5777 5776 5774 5773 5771 5769 5767 5765 5763 5761 5759 5757 5755 5753 5751 5749 5747 5744 5742 5739 5737 5735 5733 5731 5729 5727 5725 5723 5721 5719 5717 5715 5712 5710 5707 5704 5701 5698 5696 5693 5691 5688 5686 5683 5681 5679 5677 5675 5673 5671 5669 5667 5666 5664
5788 5789 5789 5789 5788 5789 5791 5792 5792 5792 5792 5792 5791 5791 5791 5791 5790 5790 5790 5789 5788 5786 5785 5784 5783 5781 5779 5778 5777 5776 5775 5774 5772 5771 5770 5769 5767 5766 5764 5762 5760 5758 5755 5753 5751 5749 5747 5745 5743 5741 5739 5736 5734 5732 5730 5728 5726 5724 5722 5720 5718 5716 5714 5712 5709 5707 5704 5701 5699 5696 5693 5690 5688 5685 5683 5680 5678 5676 5674 5672 5670 5668 5666 5664 5663 5662
5783 5784 5786 5786 5785 5785 5786 5787 5787 5787 5787 5787 5787 5786 5786 5786 5785 5785 5785 5785 5784 5783 5782 5781 5780 5779 5777 5776 5774 5773 5772 5770 5769 5767 5766 5765 5764 5762 5760 5758 5756 5754 5752 5750 5748 5746 5743 5741 5739 5737 5735 5733 5731 5729 5726 5724 5723 5721 5719 5717 5715 5713 5711 5708 5706 5703 5701 5698 5695 5693 5690 5687 5684 5682 5679 5677 5675 5673 5671 5669 5667 5665 5663 5662 5660 5659
5778 5780 5781 5782 5782 5782 5782 5782 5782 5782 5782 5781 5781 5781 5781 5781 5781 5781 5781 5781 5780 5779 5778 5778 5777 5776 5775 5773 5772 5771 5769 5768 5766 5765 5763 5762 5760 5759 5757 5755 5752 5750 5748 5746 5744 5742 5740 5738 5736 5734 5732 5730 5728 5726 5724 5722 5720 5718 5716 5714 5712 5710 5707 5705 5702 5700 5697 5695 5692 5689 5687 5684 5681 5678 5676 5674 5672 5670 5668 5665 5663 5662 5660 5659 5657 5656
5775 5776 5776 5777 5778 5779 5778 5778 5778 5778 5777 5776 5776 5776 5776 5776 5775 5775 5775 5775 5775 5774 5773 5773 5772 5772 5771 5770 5769 5768 5767 5765 5764 5762 5761 5759 5758 5756 5754 5751 5749 5747 5745 5742 5740 5739 5737 5735 5732 5730 5728 5727 5725 5723 5721 5719 5717 5715 5713 5711 5708 5706 5704 5701 5699 5696 5694 5692 5689 5686 5683 5681 5678 5675 5673 5670 5668 5666 5664 5662 5660 5658 5657 5655 5654 5652
5772 5772 5772 5772 5774 5775 5775 5774 5773 5773 5773 5772 5771 5771 5772 5771 5770 5769 5769 5769 5770 5770 5769 5768 5767 5766 5765 5764 5763 5762 5761 5760 5759 5757 5756 5755 5754 5752 5750 5748 5746 5743 5741 5739 5737 5735 5733 5731 5729 5727 5725 5724 5722 5720 5718 5715 5713 5711 5709 5707 5705 5703 5700 5697 5695 5692 5690 5688 5685 5682 5680 5677 5674 5672 5669 5667 5665 5663 5661 5659 5656 5654 5653 5651 5649 5648